Overview Statistics Trail Chart Weather Telemetry Raw packets
 

This is the latest recevied weather packets stored in our database for station/object KW4UJ. If no packets are shown the sender has not sent any weather packets the latest 10 day(s).

<< 83 84 85 86 87 88 89 >>
Time Temp. Humidity Pressure Rain* Wind** Luminosity Snow
1788022131 26.11° C 52% 1024.6 hPa 0 mm - 598 W/m² -
1788021831 25.56° C 52% 1024.6 hPa 0 mm - 569 W/m² -
1788021529 25.56° C 54% 1024.7 hPa 0 mm - 571 W/m² -
1788021223 25.56° C 53% 1024.5 hPa 0 mm - 247 W/m² -
1788020919 26.11° C 54% 1024.5 hPa 0 mm - 319 W/m² -
1788020618 25.56° C 52% 1024.6 hPa 0 mm - 232 W/m² -
1788020315 25.56° C 51% 1024.5 hPa 0 mm - 151 W/m² -
1788020010 25.56° C 53% 1024.5 hPa 0 mm - 119 W/m² -
1788019710 25.56° C 52% 1024.6 hPa 0 mm - 167 W/m² -
1788019410 25.56° C 53% 1024.6 hPa 0 mm - 186 W/m² -
1788019108 25.56° C 53% 1024.6 hPa 0 mm - 123 W/m² -
1788018815 25.56° C 52% 1024.6 hPa 0 mm - 124 W/m² -
1788018503 25.56° C 52% 1024.7 hPa 0 mm - 109 W/m² -
1788018202 25.56° C 54% 1024.7 hPa 0 mm - 100 W/m² -
1788017899 25.56° C 53% 1024.6 hPa 0 mm - 94 W/m² -
1788017595 25° C 52% 1024.6 hPa 0 mm - 90 W/m² -
1788017291 25° C 52% 1024.8 hPa 0 mm - 91 W/m² -
1788016988 25° C 51% 1024.7 hPa 0 mm - 87 W/m² -
1788016687 24.44° C 52% 1024.4 hPa 0 mm - 85 W/m² -
1788016384 24.44° C 52% 1024.5 hPa 0 mm - 84 W/m² -
1788016084 24.44° C 53% 1024.4 hPa 0 mm - 81 W/m² -
1788015783 24.44° C 52% 1024.3 hPa 0 mm - 81 W/m² -
1788015478 24.44° C 53% 1024.4 hPa 0 mm - 80 W/m² -
1788015174 24.44° C 52% 1024.5 hPa 0 mm - 92 W/m² -
1788014871 23.89° C 53% 1024.4 hPa 0 mm - 97 W/m² -

* Rain latest hour (hover to see other rain measurements)
** Current wind speed in m/s (hover to see current wind gust speed)